Weather History for Kelso-Longview, WA

Change the Weather History Date:

Sunday, April 7, 2013

  Actual Average Record
Temperature  
Mean Temperature 47 °F -  
Max Temperature 50 °F 54 °F 73 °F (2009)
Min Temperature 44 °F 38 °F 32 °F (2012)
Degree Days  
Heating Degree Days 18    
Moisture  
Dew Point 40 °F    
Average Humidity 77    
Maximum Humidity 87    
Minimum Humidity 66    
Precipitation  
Precipitation 0.46 in - - ()
Sea Level Pressure  
Sea Level Pressure 29.75 in    
Wind  
Wind Speed 6 mph (WSW)    
Max Wind Speed 8 mph    
Max Gust Speed -    
Visibility 10 miles    
Events      
Averages and records for this station are not official NWS values.
T = Trace of Precipitation, MM = Missing Value Source: NWS Daily Summary

Daily Weather History Graph

Daily Weather History Graph

Search for Another Location

Airport:

Trip Planner

Search our weather history database for the weather conditions in past years. The results will help you decide how hot, cold, wet, or windy it might be!

Date:

Astronomy

Apr. 07, 2013 Rise Set
Actual Time 6:39 AM PDT 7:48 PM PDT
Civil Twilight 6:08 AM PDT 8:19 PM PDT
Nautical Twilight 5:31 AM PDT 8:56 PM PDT
Astronomical Twilight 4:52 AM PDT 9:35 PM PDT
Moon 5:08 AM PDT (4/7) 5:20 PM PDT (4/7)
Length of Visible Light 14h 10m
Length of Day
13h 09m
Waning Crescent, 7% of the Moon is Illuminated
Apr 7
Waning Crescent
Apr 10
New
Apr 18
First Quarter
Apr 25
Full
May 2
Last Quarter

Hourly Weather History & Observations

Time (PDT) Temp. Windchill Dew Point Humidity Pressure Visibility Wind Dir Wind Speed Gust Speed Precip Events Conditions
12:15 AM 44.6 °F - 39.2 °F 81% 29.69 in 9.0 mi North - - 0.03 in   Overcast
12:35 AM 44.6 °F - 39.2 °F 81% 29.66 in 9.0 mi North - - 0.05 in   Overcast
12:55 AM 44.6 °F - 39.2 °F 81% 29.64 in 10.0 mi North - - 0.07 in   Overcast
1:15 AM 44.6 °F - 39.2 °F 81% 29.61 in 10.0 mi North - - 0.01 in   Overcast
1:35 AM 46.4 °F - 39.2 °F 76% 29.60 in 10.0 mi North - - 0.02 in   Overcast
1:55 AM 46.4 °F - 41.0 °F 81% 29.58 in 8.0 mi North - - 0.03 in   Overcast
2:15 AM 46.4 °F - 42.8 °F 87% 29.56 in 10.0 mi North - - 0.02 in   Overcast
2:35 AM 46.4 °F - 42.8 °F 87% 29.55 in 10.0 mi North - - 0.03 in   Overcast
2:55 AM 46.4 °F - 42.8 °F 87% 29.53 in 9.0 mi North - - 0.05 in   Overcast
3:15 AM 48.2 °F - 44.6 °F 87% 29.52 in 10.0 mi North - - 0.01 in   Overcast
3:35 AM 48.2 °F - 44.6 °F 87% 29.51 in 9.0 mi North - - 0.03 in   Overcast
3:55 AM 48.2 °F - 44.6 °F 87% 29.50 in 10.0 mi North - - 0.04 in   Overcast
4:15 AM 48.2 °F - 44.6 °F 87% 29.50 in 5.0 mi North - - 0.01 in   Overcast
4:35 AM 48.2 °F - 44.6 °F 87% 29.50 in 5.0 mi North - - 0.03 in   Overcast
4:55 AM 50.0 °F - 46.4 °F 87% 29.49 in 9.0 mi North - - 0.04 in   Overcast
5:15 AM 50.0 °F - 46.4 °F 87% 29.50 in 8.0 mi North - - 0.03 in   Overcast
5:35 AM 50.0 °F - 46.4 °F 87% 29.50 in 9.0 mi North - - 0.07 in   Overcast
5:55 AM 50.0 °F - 46.4 °F 87% 29.53 in 8.0 mi North - - 0.09 in   Overcast
6:15 AM 50.0 °F - 46.4 °F 87% 29.56 in 5.0 mi North - - N/A   Mostly Cloudy
6:35 AM 48.2 °F - 41.0 °F 76% 29.60 in 10.0 mi North - - N/A   Overcast
6:55 AM 48.2 °F - 39.2 °F 71% 29.64 in 10.0 mi North - - 0.01 in   Overcast
7:15 AM 46.4 °F - 37.4 °F 71% 29.66 in 10.0 mi North - - N/A   Overcast
7:35 AM 46.4 °F - 37.4 °F 71% 29.70 in 10.0 mi North - - N/A   Overcast
7:55 AM 44.6 °F - 35.6 °F 71% 29.72 in 10.0 mi North - - N/A   Overcast
8:15 AM 44.6 °F - 35.6 °F 71% 29.73 in 10.0 mi North - - N/A   Overcast
8:35 AM 44.6 °F - 37.4 °F 76% 29.75 in 10.0 mi North - - N/A   Overcast
8:55 AM 44.6 °F - 37.4 °F 76% 29.75 in 10.0 mi North - - N/A   Overcast
9:15 AM 44.6 °F - 39.2 °F 81% 29.76 in 10.0 mi North - - N/A   Overcast
9:35 AM 46.4 °F - 37.4 °F 71% 29.76 in 10.0 mi North - - N/A   Overcast
9:55 AM 46.4 °F - 37.4 °F 71% 29.77 in 10.0 mi North - - N/A   Overcast
10:15 AM 46.4 °F - 39.2 °F 76% 29.78 in 10.0 mi North - - N/A   Overcast
10:35 AM 46.4 °F - 39.2 °F 76% 29.78 in 10.0 mi North - - N/A   Overcast
10:55 AM 46.4 °F - 39.2 °F 76% 29.79 in 10.0 mi North - - N/A   Overcast
11:15 AM 46.4 °F - 41.0 °F 81% 29.79 in 10.0 mi North - - N/A   Overcast
11:35 AM 48.2 °F - 41.0 °F 76% 29.79 in 9.0 mi North - - 0.01 in   Overcast
11:55 AM 48.2 °F - 41.0 °F 76% 29.79 in 10.0 mi North - - 0.01 in   Overcast
12:15 PM 48.2 °F - 39.2 °F 71% 29.79 in 10.0 mi North - - N/A   Mostly Cloudy
12:35 PM 48.2 °F - 41.0 °F 76% 29.80 in 10.0 mi North - - N/A   Overcast
12:55 PM 48.2 °F - 39.2 °F 71% 29.80 in 10.0 mi North - - N/A   Overcast
1:15 PM 46.4 °F - 39.2 °F 76% 29.80 in 9.0 mi North - - 0.08 in   Overcast
1:35 PM 46.4 °F - 41.0 °F 81% 29.81 in 10.0 mi North - - 0.12 in   Overcast
1:55 PM 46.4 °F - 41.0 °F 81% 29.81 in 10.0 mi North - - 0.12 in   Overcast
2:15 PM 46.4 °F 42.9 °F 39.2 °F 76% 29.82 in 10.0 mi WSW 6.9 mph - N/A   Overcast
2:35 PM 46.4 °F 42.4 °F 39.2 °F 76% 29.82 in 10.0 mi SW 8.1 mph - N/A   Overcast
2:55 PM 48.2 °F - 39.2 °F 71% 29.82 in 10.0 mi SW 6.9 mph - N/A   Overcast
3:15 PM 48.2 °F - 39.2 °F 71% 29.83 in 10.0 mi WSW 6.9 mph - N/A   Overcast
3:35 PM 48.2 °F - 39.2 °F 71% 29.83 in 10.0 mi WSW 5.8 mph - N/A   Overcast
3:55 PM 48.2 °F - 39.2 °F 71% 29.82 in 10.0 mi WSW 4.6 mph - N/A   Mostly Cloudy
4:15 PM 50.0 °F - 41.0 °F 71% 29.82 in 10.0 mi Calm Calm - N/A   Mostly Cloudy
4:35 PM 50.0 °F - 41.0 °F 71% 29.83 in 10.0 mi West 5.8 mph - N/A   Mostly Cloudy
4:55 PM 50.0 °F - 39.2 °F 66% 29.83 in 10.0 mi WSW 8.1 mph - N/A   Mostly Cloudy
5:15 PM 48.2 °F - 37.4 °F 66% 29.84 in 10.0 mi WSW 6.9 mph - N/A   Overcast
5:35 PM 48.2 °F - 39.2 °F 71% 29.84 in 10.0 mi WNW 4.6 mph - N/A   Mostly Cloudy
5:55 PM 48.2 °F - 39.2 °F 71% 29.85 in 10.0 mi West 3.5 mph - N/A   Overcast
6:15 PM 48.2 °F - 39.2 °F 71% 29.85 in 10.0 mi North - - N/A   Overcast
6:35 PM 46.4 °F - 39.2 °F 76% 29.86 in 10.0 mi North - - N/A   Overcast
6:55 PM 46.4 °F - 37.4 °F 71% 29.86 in 10.0 mi North - - N/A   Overcast
7:15 PM 46.4 °F - 37.4 °F 71% 29.86 in 10.0 mi North - - N/A   Overcast
7:35 PM 46.4 °F - 37.4 °F 71% 29.87 in 10.0 mi North - - N/A   Overcast
7:55 PM 46.4 °F - 37.4 °F 71% 29.87 in 10.0 mi North - - N/A   Overcast
8:15 PM 44.6 °F - 37.4 °F 76% 29.88 in 10.0 mi North - - N/A   Overcast
8:35 PM 44.6 °F - 37.4 °F 76% 29.89 in 10.0 mi North - - N/A   Overcast
8:55 PM 44.6 °F - 37.4 °F 76% 29.90 in 10.0 mi North - - N/A   Overcast
9:15 PM 44.6 °F - 37.4 °F 76% 29.91 in 10.0 mi North - - N/A   Overcast
9:35 PM 44.6 °F - 37.4 °F 76% 29.92 in 10.0 mi North - - N/A   Mostly Cloudy
9:55 PM 44.6 °F - 37.4 °F 76% 29.92 in 10.0 mi North - - N/A   Mostly Cloudy
10:15 PM 44.6 °F - 37.4 °F 76% 29.93 in 10.0 mi North - - N/A   Overcast
10:35 PM 44.6 °F - 37.4 °F 76% 29.93 in 10.0 mi North - - N/A   Overcast
10:55 PM 44.6 °F - 37.4 °F 76% 29.94 in 10.0 mi North - - N/A   Mostly Cloudy
11:15 PM 44.6 °F - 37.4 °F 76% 29.94 in 10.0 mi North - - N/A   Overcast
11:35 PM 44.6 °F - 39.2 °F 81% 29.95 in 10.0 mi North - - N/A   Overcast
11:55 PM 44.6 °F - 37.4 °F 76% 29.96 in 10.0 mi North - - N/A   Overcast